Weather History for Smyrna, TN

Change the Weather History Date:

Saturday, April 27, 2013

  Actual Average Record
Temperature  
Mean Temperature 54 °F -  
Max Temperature 59 °F 69 °F 82 °F (2001)
Min Temperature 50 °F 52 °F 41 °F (2006)
Degree Days  
Heating Degree Days 10    
Growing Degree Days 4 (Base 50)    
Moisture  
Dew Point 54 °F    
Average Humidity 98    
Maximum Humidity 100    
Minimum Humidity 90    
Precipitation  
Precipitation 0.45 in - - ()
Sea Level Pressure  
Sea Level Pressure 30.21 in    
Wind  
Wind Speed 5 mph (SE)    
Max Wind Speed 34 mph    
Max Gust Speed 43 mph    
Visibility 4 miles    
Events Rain    
Averages and records for this station are not official NWS values.
T = Trace of Precipitation, MM = Missing Value Source: NWS Daily Summary

Daily Weather History Graph

Daily Weather History Graph

Search for Another Location

Airport:

Trip Planner

Search our weather history database for the weather conditions in past years. The results will help you decide how hot, cold, wet, or windy it might be!

Date:

Astronomy

Apr. 27, 2013 Rise Set
Actual Time 5:57 AM CDT 7:30 PM CDT
Civil Twilight 5:30 AM CDT 7:57 PM CDT
Nautical Twilight 4:57 AM CDT 8:30 PM CDT
Astronomical Twilight 4:23 AM CDT 9:04 PM CDT
Moon 9:55 PM CDT 7:18 AM CDT
Length of Visible Light 14h 26m
Length of Day
13h 32m
Waning Gibbous, 95% of the Moon is Illuminated
Apr 27
Waning Gibbous
May 2
Last Quarter
May 9
New
May 17
First Quarter
May 24
Full

Hourly Weather History & Observations

Time (CDT) Temp. Dew Point Humidity Pressure Visibility Wind Dir Wind Speed Gust Speed Precip Events Conditions
12:56 AM 50.9 °F 50.0 °F 97% 30.36 in 10.0 mi Calm Calm - 0.00 in   Overcast
1:37 AM 51.8 °F 51.8 °F 100% 30.36 in 4.0 mi Calm Calm - 0.00 in Rain Heavy Rain
1:56 AM 50.9 °F 50.9 °F 100% 30.37 in 4.0 mi Calm Calm - 0.00 in Rain Heavy Rain
2:05 AM 51.8 °F 51.8 °F 100% 30.32 in 5.0 mi Calm Calm - 0.00 in Rain Rain
2:56 AM 50.9 °F 50.9 °F 100% 30.34 in 5.0 mi Calm Calm - 0.00 in Rain Light Rain
3:21 AM 51.8 °F 51.8 °F 100% 30.29 in 5.0 mi Calm Calm - 0.00 in Rain Rain
3:56 AM 50.9 °F 50.0 °F 97% 30.28 in 10.0 mi Calm Calm - 0.00 in   Scattered Clouds
4:56 AM 50.9 °F 50.9 °F 100% 30.25 in 10.0 mi SSE 6.9 mph - 0.00 in   Mostly Cloudy
5:56 AM 52.0 °F 50.9 °F 96% 30.26 in 4.0 mi Calm Calm - 0.00 in Rain Rain
6:15 AM 51.8 °F 51.8 °F 100% 30.25 in 4.0 mi NE 5.8 mph - 0.00 in Rain Light Rain
6:56 AM 52.0 °F 52.0 °F 100% 30.28 in 4.0 mi ENE 5.8 mph - 0.00 in Rain Rain
7:09 AM 51.8 °F 51.8 °F 100% 30.25 in 2.0 mi ENE 5.8 mph - 0.01 in Rain Heavy Rain
7:34 AM 51.8 °F 51.8 °F 100% 30.26 in 2.5 mi NE 6.9 mph - 0.01 in Rain Rain
7:56 AM 52.0 °F 52.0 °F 100% 30.29 in 2.5 mi East 6.9 mph - 0.01 in Rain Rain
8:15 AM 51.8 °F 51.8 °F 100% 30.26 in 2.5 mi East 5.8 mph - 0.02 in Rain Heavy Rain
8:56 AM 52.0 °F 52.0 °F 100% 30.27 in 2.5 mi SE 6.9 mph - 0.08 in Rain Rain
8:58 AM 51.8 °F 51.8 °F 100% 30.25 in 1.5 mi SE 8.1 mph - 0.00 in Rain Heavy Rain
9:02 AM 51.8 °F 51.8 °F 100% 30.25 in 1.2 mi SSE 5.8 mph - 0.01 in Rain Heavy Rain
9:15 AM 51.8 °F 51.8 °F 100% 30.25 in 1.5 mi SE 3.5 mph - 0.04 in Rain Heavy Rain
9:27 AM 53.6 °F 51.8 °F 94% 30.25 in 1.5 mi SSE 5.8 mph - 0.04 in Rain Heavy Rain
9:39 AM 53.6 °F 53.6 °F 100% 30.28 in 1.8 mi WSW 6.9 mph - 0.06 in Rain Rain
9:44 AM 53.6 °F 53.6 °F 100% 30.28 in 1.2 mi Variable 4.6 mph - 0.09 in Rain Heavy Rain
9:48 AM 53.6 °F 53.6 °F 100% 30.27 in 1.0 mi Calm Calm - 0.12 in Rain Heavy Rain
9:56 AM 52.9 °F 52.9 °F 100% 30.30 in 1.2 mi Calm Calm - 0.14 in Rain Heavy Rain
10:15 AM 53.6 °F 53.6 °F 100% 30.25 in 1.5 mi SE 3.5 mph - 0.03 in Rain Heavy Rain
10:28 AM 53.6 °F 53.6 °F 100% 30.27 in 1.2 mi Calm Calm - 0.04 in Rain Heavy Rain
10:38 AM 53.6 °F 53.6 °F 100% 30.25 in 1.0 mi SSE 5.8 mph - 0.04 in Rain Heavy Rain
10:46 AM 53.6 °F 53.6 °F 100% 30.25 in 1.5 mi Calm Calm - 0.05 in Rain Heavy Rain
10:56 AM 54.0 °F 54.0 °F 100% 30.24 in 1.8 mi East 10.4 mph - 0.06 in Rain Heavy Rain
11:01 AM 55.4 °F 55.4 °F 100% 30.22 in 2.0 mi SE 9.2 mph - 0.01 in Rain Rain
11:07 AM 55.4 °F 55.4 °F 100% 30.22 in 3.0 mi SE 8.1 mph - 0.01 in Rain Rain
11:14 AM 55.4 °F 55.4 °F 100% 30.21 in 3.0 mi SE 12.7 mph - 0.01 in Rain Rain
11:36 AM 55.4 °F 55.4 °F 100% 30.24 in 1.8 mi SE 9.2 mph - 0.02 in Rain Heavy Rain
11:56 AM 54.9 °F 54.0 °F 97% 30.24 in 1.5 mi SE 15.0 mph - 0.02 in Rain Heavy Rain
12:01 PM 55.4 °F 53.6 °F 94% 30.21 in 1.8 mi SSE 17.3 mph 24.2 mph 0.00 in Rain Rain
12:05 PM 55.4 °F 55.4 °F 100% 30.20 in 2.0 mi SSE 17.3 mph 24.2 mph 0.00 in Rain Rain
12:12 PM 55.4 °F 55.4 °F 100% 30.19 in 3.0 mi SSE 15.0 mph - 0.00 in Rain Light Rain
12:36 PM 57.2 °F 55.4 °F 94% 30.19 in 9.0 mi SSE 12.7 mph 21.9 mph 0.00 in   Mostly Cloudy
12:48 PM 57.2 °F 55.4 °F 94% 30.18 in 9.0 mi SE 13.8 mph - 0.00 in   Mostly Cloudy
12:56 PM 56.8 °F 55.9 °F 97% 30.21 in 4.0 mi SSE 12.7 mph - 0.00 in Rain Light Rain
1:47 PM 55.4 °F 55.4 °F 100% 30.17 in 1.8 mi SSE 8.1 mph - 0.01 in Rain Heavy Rain
1:56 PM 55.9 °F 54.9 °F 96% 30.21 in 1.8 mi Variable 3.5 mph - 0.01 in Rain Rain
2:10 PM 55.4 °F 55.4 °F 100% 30.18 in 3.0 mi SSE 5.8 mph - 0.01 in Rain Light Rain
2:27 PM 55.4 °F 55.4 °F 100% 30.17 in 4.0 mi SE 6.9 mph - 0.01 in Rain Light Rain
2:37 PM 55.4 °F 55.4 °F 100% 30.17 in 2.0 mi SE 6.9 mph - 0.01 in Rain Rain
2:56 PM 55.9 °F 55.9 °F 100% 30.18 in 1.8 mi SE 8.1 mph - 0.01 in Rain Rain
2:58 PM 55.4 °F 55.4 °F 100% 30.15 in 2.0 mi SE 5.8 mph - 0.00 in Rain Light Rain
3:04 PM 57.2 °F 55.4 °F 94% 30.15 in 3.0 mi SE 5.8 mph - 0.00 in Rain Light Rain
3:11 PM 55.4 °F 55.4 °F 100% 30.15 in 6.0 mi SE 6.9 mph - 0.00 in Rain Light Rain
3:56 PM 57.9 °F 56.8 °F 96% 30.16 in 10.0 mi SE 6.9 mph - 0.00 in   Overcast
4:16 PM 57.2 °F 57.2 °F 100% 30.11 in 10.0 mi SE 5.8 mph - N/A   Overcast
4:56 PM 59.0 °F 56.8 °F 93% 30.13 in 10.0 mi SSE 9.2 mph - N/A   Overcast
5:13 PM 59.0 °F 57.2 °F 94% 30.09 in 10.0 mi SSE 8.1 mph - N/A   Overcast
5:45 PM 59.0 °F 57.2 °F 94% 30.07 in 10.0 mi SE 8.1 mph - N/A   Overcast
5:56 PM 59.0 °F 56.8 °F 93% 30.09 in 10.0 mi SE 9.2 mph - N/A   Overcast
6:56 PM 57.9 °F 56.8 °F 96% 30.07 in 10.0 mi SSE 8.1 mph - N/A   Overcast
7:56 PM 56.8 °F 55.9 °F 97% 30.03 in 10.0 mi SSE 9.2 mph - N/A   Clear
8:56 PM 55.9 °F 55.9 °F 100% 30.02 in 10.0 mi South 6.9 mph - N/A   Clear
9:56 PM 59.0 °F 56.8 °F 93% 30.01 in 10.0 mi South 5.8 mph - N/A   Partly Cloudy
10:56 PM 59.0 °F 55.9 °F 90% 30.02 in 10.0 mi NE 16.1 mph - 0.00 in   Overcast
11:56 PM 59.0 °F 56.8 °F 93% 30.02 in 2.0 mi North 26.5 mph 32.2 mph 0.12 in Rain Heavy Rain
11:58 PM 57.2 °F 57.2 °F 100% 30.00 in 1.0 mi NNW 34.5 mph 42.6 mph 0.08 in Rain Heavy Rain